Location: Winthrop
(48.4780°N, 120.1850°W)
Time: 02:29:24
(UTC-08:00)

Transit 2A Rocket - Visible Passes

Search period start: 28 January 2023 00:00
Search period end: 07 February 2023 00:00
Orbit: 585 x 914 km, 66.7° (Epoch: 27 January)

Date Brightness Start Highest point End Pass type
(mag) Time Alt. Az. Time Alt. Az. Time Alt. Az.
28 Jan 7.8 03:31:11 11° NNE 03:31:11 11° NNE 03:31:32 10° NNE visible
28 Jan 7.3 05:11:02 12° NNW 05:12:09 12° N 05:14:27 10° NNE visible
28 Jan 7.3 06:53:27 10° NNW 06:57:12 17° NNE 07:01:04 10° ENE visible
29 Jan 7.4 04:29:03 13° N 04:29:03 13° N 04:31:03 10° NNE visible
29 Jan 7.4 06:10:25 10° NNW 06:13:31 14° NNE 06:16:42 10° NE visible
30 Jan 7.7 03:47:03 12° N 03:47:03 12° N 03:47:55 10° NNE visible
30 Jan 7.4 05:27:12 10° NNW 05:29:45 13° N 05:32:21 10° NE visible
31 Jan 7.4 04:44:55 12° N 04:45:58 12° N 04:48:18 10° NNE visible
31 Jan 7.3 06:26:45 10° NNW 06:30:55 20° NNE 06:35:13 10° ENE visible
01 Feb 7.6 04:02:54 12° N 04:02:54 12° N 04:04:39 10° NNE visible
01 Feb 7.4 05:43:45 10° NNW 05:47:16 16° NNE 05:50:53 10° ENE visible
02 Feb 7.9 03:20:54 11° NNE 03:20:54 11° NNE 03:21:22 10° NNE visible
02 Feb 7.5 05:00:45 10° NNW 05:03:32 14° NNE 05:06:31 10° NE visible
02 Feb 6.9 06:42:59 10° NNW 06:48:06 29° NE 06:53:22 10° E visible
03 Feb 7.5 04:18:45 12° N 04:19:46 13° N 04:22:17 10° NNE visible
03 Feb 7.2 06:00:02 10° NNW 06:04:36 23° NNE 06:09:18 10° E visible
04 Feb 7.7 03:36:44 12° N 03:36:44 12° N 03:38:22 10° NNE visible
04 Feb 7.4 05:17:03 10° NNW 05:21:00 18° NNE 05:25:02 10° ENE visible
05 Feb 8.0 02:54:44 10° NNE 02:54:44 10° NNE 02:54:53 10° NNE visible
05 Feb 7.5 04:34:36 11° NNW 04:37:18 15° NNE 04:40:41 10° NE visible
05 Feb 6.7 06:16:16 10° NNW 06:21:41 35° NE 06:27:14 10° ESE visible
06 Feb 7.6 03:52:36 13° N 03:53:32 13° N 03:56:21 10° NE visible
06 Feb 7.1 05:33:17 10° NNW 05:38:14 26° NE 05:43:18 10° E visible
